[[{"header":{"parameterUnit":"m.s-1","parameterCategory":1,"la1":30.2991,"la2":30.254,"lo1":-89.0895,"lo2":-89.0444,"dy":0.0017,"dx":0.0017,"nx":28,"ny":28,"refTime":"2023-03-21T21:00:00:Z","depth":0,"parameterNumber":2,"parameterNumberName":"U-component_of_WINDS"},"data":[0,0,0,0,0,0,0,0,0,0,0,0,0,0,0,0,0,0,0,0,0,0,0,0,0,0,0,0,0,0,0,0,0,0,0,0,0,0,0,0,0,0,0,0,0,0,0,0,0,0,0,0,0,0,0,0,0,0,-2.9789,-2.979,0,-2.9904,-2.9906,-2.9907,-2.99,-2.9899,-2.9897,-2.9896,-3.0013,-3.0017,-3.0022,0,0,0,0,0,0,0,0,0,0,0,0,0,-2.9563,-2.9568,-2.9789,-2.979,-2.9792,-2.9904,-2.9906,-2.9907,-2.9901,-2.9899,-2.9897,-2.9895,-3.0011,-3.0017,-3.0022,0,0,0,0,0,0,0,0,0,0,0,0,0,-2.9668,-2.9569,-2.9789,-2.9802,-2.9804,-2.9904,-2.9906,-2.9908,-2.9901,-2.9899,-2.9896,-2.9894,-3.0009,-3.0016,-3.0023,-3.0116,0,0,-3.0045,-3.0048,0,0,0,0,0,0,0,0,-2.9662,-2.9677,-2.9799,-2.9801,-2.9804,-2.9885,-2.9869,-2.9978,-2.9902,-2.9864,-2.9896,-2.9893,-2.9972,-2.9982,-3.0009,-3.0122,-3.0127,-3.0045,-3.0049,-3.0053,-3.0054,0,0,0,0,0,0,0,-2.9655,-2.9672,-2.9835,-2.98,-2.9804,-2.9803,-2.9815,-2.989,-2.9931,-2.9868,-2.9867,-2.9881,-2.9973,-3.0003,-3.0012,-3.0129,-3.0045,-3.0051,-3.0056,-3.0058,-3.0324,-3.0327,0,0,0,0,0,0,-2.9645,-2.9666,-2.9831,-2.9838,-2.9726,-2.9809,-2.9822,-2.9862,-2.993,-2.9938,-2.9883,-2.988,-2.9992,-3.0004,-3.0016,-3.013,-3.0052,-3.0059,-3.0063,-3.0321,-3.0325,-3.0328,0,0,0,0,0,0,-2.964,-2.966,-2.9826,-2.9752,-2.9773,-2.9815,-2.986,-2.9865,-2.9895,-2.9942,-2.9949,-2.9905,-2.999,-3.0006,-3.0092,-3.0134,-3.0062,-3.0069,-3.0318,-3.0322,-3.0326,-3.0357,0,0,0,0,0,0,-2.9634,-2.9658,-2.9694,-2.9753,-2.9777,-2.99,-2.9862,-2.987,-2.9907,-2.9904,-2.9965,-2.9972,-2.999,-3.0081,-3.0099,-3.0142,-3.0074,-3.0314,-3.032,-3.0325,-3.0353,-3.0362,-3.037,0,0,0,0,0,-2.9626,-2.9698,-2.9695,-2.9715,-2.9822,-2.9902,-2.9916,-2.9935,-2.991,-2.9947,-2.9977,-2.997,-3.0127,-3.009,-3.011,-3.0156,-3.0312,-3.0318,-3.0324,-3.0349,-3.036,-3.037,0,0,0,0,0,0,-2.9642,-2.9706,-2.9704,-2.9797,-2.9844,-2.9901,-2.9947,-2.9946,-3.0001,-2.9996,-3.0017,-3.0031,-3.0117,-3.0145,-3.0103,-3.025,-3.0216,-3.0227,-3.0228,-3.0239,-3.0248,-3.0238,-3.008,0,0,0,0,0,-2.9656,-2.9716,-2.9768,-2.9846,-2.987,-2.9904,-2.994,-2.995,-3.0,-3.002,-3.0057,-3.0105,-3.0165,-3.0204,-3.0262,-3.0357,-3.037,-3.0399,-3.0408,-3.0415,-3.0423,-3.0476,-3.0489,-3.0349,-3.0349,-3.0349,0,0,-2.9687,-2.9729,-2.9765,-2.985,-2.9888,-2.9949,-2.9921,-2.9987,-3.0032,-3.003,-3.0112,-3.0141,-3.0197,-3.0288,-3.033,-3.0314,-3.0465,-3.0423,-3.0428,-3.0433,-3.0484,-3.0497,-3.0508,-3.0353,-3.0352,-3.0352,0,0,-2.9773,-2.9811,-2.988,-2.9919,-2.9976,-2.9999,-3.0016,-3.0073,-3.0092,-3.0176,-3.0175,-3.023,-3.0333,-3.0373,-3.0406,-3.0509,-3.0505,-3.0528,-3.0573,-3.0624,-3.0635,-3.0645,-3.0681,-3.0693,-3.0536,-3.0536,-3.0536,0,-2.9803,-2.9895,-2.9915,-2.9982,-3.0019,-3.002,-3.009,-3.0127,-3.02,-3.0226,-3.0208,-3.0337,-3.0375,-3.0475,-3.05,-3.0528,-3.0547,-3.052,-3.0632,-3.0642,-3.0651,-3.0686,-3.0699,-3.0539,-3.0538,-3.0538,-3.0538,0,-2.993,-2.9994,-3.0042,-3.0113,-3.0157,-3.0224,-3.0254,-3.0296,-3.0303,-3.0328,-3.0413,-3.0459,-3.0526,-3.0551,-3.0558,-3.0652,-3.0641,-3.0627,-3.0593,-3.0666,-3.0699,-3.0713,-3.0542,-3.0541,-3.054,-3.054,0,0,-3.0027,-3.011,-3.0127,-3.016,-3.0225,-3.0275,-3.0343,-3.0409,-3.0444,-3.0495,-3.0552,-3.064,-3.0628,-3.0666,-3.0679,-3.0724,-3.0802,-3.0705,-3.0706,-3.072,-3.0908,-3.0917,-3.0932,-3.0801,-3.0803,-3.0805,-3.0903,0,-3.012,-3.024,-3.026,-3.0366,-3.0425,-3.0428,-3.0488,-3.0534,-3.056,-3.0614,-3.0642,-3.0704,-3.0684,-3.0707,-3.0752,-3.0783,-3.084,-3.0776,-3.0853,-3.0856,-3.0838,-3.0949,-3.0959,-3.1048,-3.0916,-3.0918,-3.092,0,-3.0243,-3.0298,-3.0409,-3.0466,-3.0492,-3.0545,-3.0607,-3.0659,-3.0712,-3.0728,-3.0771,-3.0778,-3.0849,-3.0814,-3.0912,-3.0868,-3.0901,-3.0922,-3.0926,-3.0932,-3.0891,-3.0957,-3.1078,-3.1091,-3.094,-3.0939,-3.0937,0,-3.0302,-3.0404,-3.0484,-3.0512,-3.0581,-3.0618,-3.0648,-3.0699,-3.0737,-3.0792,-3.0817,-3.088,-3.0914,-3.0962,-3.0986,-3.0958,-3.1082,-3.1049,-3.1096,-3.1096,-3.1121,-3.1119,-3.1247,-3.1145,-3.1144,-3.1144,-3.1144,0,-3.0402,-3.0469,-3.0511,-3.056,-3.0636,-3.066,-3.0735,-3.0764,-3.081,-3.0864,-3.0872,-3.0923,-3.0952,-3.1008,-3.1028,-3.1105,-3.1121,-3.1135,-3.1139,-3.1134,-3.1132,-3.1154,-3.1148,-3.1148,-3.1147,-3.1146,-3.1146,0,-3.048,-3.051,-3.0598,-3.0656,-3.0673,-3.0726,-3.0776,-3.0824,-3.085,-3.092,-3.0937,-3.0978,-3.1045,-3.1074,-3.1155,-3.1169,-3.1257,-3.1257,-3.1239,-3.124,-3.1286,-3.1281,-3.1432,-3.1452,-3.1338,-3.1339,-3.134,0,-3.0541,-3.0593,-3.0657,-3.0695,-3.0726,-3.0787,-3.0826,-3.0852,-3.0893,-3.0958,-3.0998,-3.1064,-3.1118,-3.1224,-3.1261,-3.1323,-3.1324,-3.1373,-3.1333,-3.1326,-3.1324,-3.132,-3.1325,-3.1379,-3.1381,-3.1382,-3.1382,0,-3.0645,-3.0658,-3.0715,-3.0778,-3.0825,-3.0875,-3.0925,-3.0955,-3.0989,-3.1034,-3.1102,-3.1145,-3.1228,-3.1294,-3.1359,-3.139,-3.1392,-3.1395,-3.1409,-3.1403,-3.139,-3.1397,-3.1257,-3.1391,-3.139,-3.1389,-3.1389,-3.1388,-3.0716,-3.0763,-3.0815,-3.0879,-3.0919,-3.0965,-3.1013,-3.1045,-3.1103,-3.1173,-3.1185,-3.1257,-3.1309,-3.1397,-3.1431,-3.1488,-3.1476,-3.1496,-3.1501,-3.1506,-3.1508,-3.1382,-3.15,-3.15,-3.1499,-3.1499,-3.1499,0,-3.082,-3.0855,-3.0913,-3.0982,-3.1032,-3.103,-3.1085,-3.1127,-3.119,-3.1239,-3.1293,-3.1371,-3.1435,-3.1478,-3.1542,-3.158,-3.1582,-3.1596,-3.1592,-3.16,-3.1515,-3.1496,-3.1593,-3.1593,-3.1593,-3.1593,-3.1593,-3.1593,-3.088,-3.0959,-3.0978,-3.1077,-3.1111,-3.1182,-3.1213,-3.1256,-3.1295,-3.1382,-3.1436,-3.1463,-3.151,-3.1578,-3.1637,-3.1648,-3.1671,-3.1685,-3.1695,-3.1615,-3.1605,-3.1596,-3.1578,-3.169,-3.169,-3.1775,-3.1775,-3.1776]},{"header":{"parameterUnit":"m.s-1","parameterCategory":1,"la1":30.2991,"la2":30.254,"lo1":-89.0895,"lo2":-89.0444,"dy":0.0017,"dx":0.0017,"nx":28,"ny":28,"refTime":"2023-03-21T21:00:00:Z","depth":0,"parameterNumber":3,"parameterNumberName":"V-component_of_WINDS"},"data":[0,0,0,0,0,0,0,0,0,0,0,0,0,0,0,0,0,0,0,0,0,0,0,0,0,0,0,0,0,0,0,0,0,0,0,0,0,0,0,0,0,0,0,0,0,0,0,0,0,0,0,0,0,0,0,0,0,0,3.5082,3.5081,0,3.4974,3.4973,3.4971,3.4841,3.4839,3.4837,3.4835,3.4717,3.4716,3.4715,0,0,0,0,0,0,0,0,0,0,0,0,0,3.5173,3.5172,3.5082,3.5081,3.508,3.4974,3.4973,3.4971,3.4841,3.4839,3.4836,3.4834,3.4718,3.4716,3.4715,0,0,0,0,0,0,0,0,0,0,0,0,0,3.5106,3.5171,3.5083,3.5002,3.4994,3.4974,3.4973,3.4971,3.4842,3.4839,3.4836,3.4833,3.4718,3.4716,3.4715,3.4763,0,0,3.4709,3.4708,0,0,0,0,0,0,0,0,3.511,3.5102,3.5016,3.5008,3.4999,3.4918,3.4961,3.4901,3.4843,3.49,3.4835,3.4832,3.4786,3.4778,3.4764,3.4757,3.4752,3.4709,3.4707,3.4707,3.4706,0,0,0,0,0,0,0,3.5114,3.5106,3.5039,3.5014,3.5004,3.497,3.4957,3.4949,3.4861,3.4894,3.4885,3.4874,3.4781,3.4767,3.4761,3.4751,3.4709,3.4707,3.4706,3.4705,3.4777,3.478,0,0,0,0,0,0,3.5132,3.5111,3.5043,3.5036,3.5048,3.4971,3.4957,3.4947,3.4861,3.4845,3.4877,3.4868,3.4771,3.4763,3.4756,3.4806,3.4707,3.4705,3.4704,3.4774,3.4778,3.4781,0,0,0,0,0,0,3.5134,3.5127,3.5047,3.5071,3.5058,3.4973,3.4963,3.4946,3.4932,3.4847,3.483,3.4879,3.4769,3.4759,3.4763,3.4801,3.4704,3.4702,3.4771,3.4776,3.478,3.4909,0,0,0,0,0,0,3.5138,3.5129,3.5147,3.5072,3.5058,3.5057,3.4965,3.4946,3.493,3.4918,3.4845,3.4829,3.4766,3.4766,3.4761,3.4796,3.4701,3.4767,3.4773,3.4778,3.4901,3.4917,3.4931,0,0,0,0,0,3.5141,3.5186,3.5149,3.5141,3.5079,3.506,3.5051,3.4978,3.4933,3.495,3.4896,3.4832,3.4798,3.4768,3.476,3.4796,3.4764,3.4771,3.4778,3.4894,3.4914,3.4931,0,0,0,0,0,0,3.5265,3.5175,3.5132,3.5155,3.5117,3.5038,3.5057,3.5002,3.4974,3.4963,3.4873,3.4857,3.4872,3.4834,3.4802,3.4838,3.4772,3.4777,3.4862,3.4881,3.4896,3.4903,3.4699,0,0,0,0,0,3.5296,3.5289,3.521,3.5238,3.5221,3.5143,3.5132,3.508,3.5035,3.5017,3.4963,3.4921,3.49,3.4888,3.4865,3.4895,3.4877,3.4916,3.4932,3.4945,3.495,3.4963,3.4979,3.4804,3.4804,3.4804,0,0,3.5357,3.5307,3.5308,3.5261,3.5225,3.5219,3.513,3.5127,3.5121,3.5016,3.5017,3.4976,3.4922,3.494,3.4945,3.4909,3.4995,3.4953,3.4964,3.4962,3.4972,3.4988,3.5003,3.4809,3.4808,3.4807,0,0,3.5467,3.5429,3.5448,3.5414,3.5362,3.531,3.5315,3.5246,3.5215,3.5215,3.5137,3.5128,3.5095,3.506,3.5038,3.5137,3.5076,3.5132,3.5211,3.5225,3.5239,3.525,3.5285,3.5298,3.5138,3.5139,3.5139,0,3.5549,3.5539,3.5464,3.5466,3.5448,3.5356,3.5374,3.5344,3.5286,3.5274,3.5236,3.5194,3.5151,3.5159,3.5184,3.517,3.5171,3.5139,3.5243,3.5254,3.5264,3.5296,3.5309,3.5145,3.5145,3.5144,3.5143,0,3.5642,3.5637,3.5658,3.5607,3.5591,3.5601,3.5527,3.5519,3.5469,3.5422,3.5423,3.5369,3.5333,3.5332,3.5282,3.5333,3.5312,3.526,3.5191,3.5289,3.5317,3.5329,3.5156,3.5153,3.5151,3.5149,0,0,3.5824,3.5734,3.5743,3.5719,3.5655,3.5648,3.5655,3.5622,3.5617,3.5581,3.5583,3.5559,3.551,3.5486,3.5431,3.5444,3.5525,3.5389,3.5386,3.5415,3.5577,3.5616,3.5631,3.5486,3.5488,3.5489,3.5581,0,3.592,3.5927,3.5861,3.5885,3.5878,3.5792,3.5797,3.5758,3.5715,3.5701,3.5651,3.5635,3.5574,3.5558,3.5567,3.5514,3.5556,3.5506,3.5484,3.5484,3.5499,3.5646,3.5687,3.5776,3.5592,3.5594,3.5595,0,3.6033,3.6006,3.603,3.5967,3.5961,3.5968,3.5933,3.5922,3.5876,3.5843,3.5818,3.5757,3.5756,3.5693,3.5691,3.5659,3.5646,3.5619,3.562,3.5614,3.5544,3.5642,3.5803,3.5816,3.5612,3.561,3.5609,0,3.6162,3.6131,3.6142,3.6124,3.6051,3.6057,3.6027,3.5978,3.5963,3.5933,3.5922,3.5892,3.5874,3.5851,3.5783,3.5744,3.5789,3.572,3.576,3.5762,3.5771,3.5771,3.5931,3.5766,3.5766,3.5766,3.5766,0,3.6275,3.6293,3.6199,3.6205,3.6223,3.6147,3.6165,3.6126,3.6084,3.608,3.6004,3.6001,3.5912,3.59,3.5846,3.5852,3.5845,3.5817,3.5802,3.5823,3.5827,3.5812,3.5804,3.5769,3.5769,3.5768,3.5767,0,3.6421,3.6359,3.6364,3.6296,3.6279,3.6295,3.6235,3.6237,3.619,3.6187,3.6181,3.6106,3.6087,3.6018,3.5981,3.5945,3.5968,3.594,3.5984,3.5975,3.6018,3.6015,3.6173,3.6189,3.6017,3.6018,3.602,0,3.6496,3.6508,3.6442,3.6436,3.6409,3.6399,3.6384,3.631,3.6298,3.6248,3.6256,3.6232,3.6209,3.6183,3.6123,3.6095,3.6065,3.6123,3.606,3.6081,3.6065,3.6064,3.6065,3.6136,3.6138,3.614,3.6141,0,3.6637,3.6606,3.6589,3.6562,3.6548,3.6522,3.6492,3.6491,3.6408,3.6398,3.6379,3.6362,3.6326,3.6303,3.6266,3.6231,3.6172,3.6162,3.617,3.619,3.6215,3.6201,3.602,3.6158,3.6156,3.6155,3.6154,3.6153,3.6748,3.6756,3.6711,3.6695,3.6665,3.6639,3.6638,3.6592,3.6576,3.6543,3.6501,3.6488,3.6441,3.6386,3.6357,3.6344,3.6312,3.6323,3.6325,3.6329,3.6339,3.6219,3.6337,3.6337,3.6336,3.6336,3.6335,0,3.6884,3.6852,3.6838,3.68,3.6787,3.6736,3.6701,3.6693,3.6683,3.6647,3.6626,3.6605,3.6583,3.6524,3.6495,3.6496,3.6468,3.6491,3.6489,3.6482,3.637,3.6366,3.6514,3.6514,3.6514,3.6514,3.6514,3.6514,3.6953,3.6963,3.6927,3.6921,3.6888,3.6876,3.686,3.6836,3.6806,3.6787,3.6769,3.6732,3.6686,3.6654,3.663,3.6613,3.6605,3.6637,3.6611,3.6507,3.649,3.6473,3.6469,3.6636,3.6636,3.6723,3.6724,3.6725]}]]